FLOCK 4BE 25

导读

FLOCK 4BE 25是由美国于2024年8月16日发射的卫星,隶属于FLOCK卫星星座。该星座由行星实验室运营,以高分辨率对地观测著称,可提供全球地理信息、环境监测、灾害响应等服务。FLOCK 4BE 25的入轨进一步扩充了星座的观测能力,增强了对地成像的重访频率与覆盖范围,在商业遥感领域发挥重要作用。

Basic Information
目录编号:
60487
目录名称:
FLOCK 4BE 25
国际标识:
2024-149V
轨道中心:
EARTH
卫星名称:
FLOCK 4BE 25
卫星全名:
FLOCK 4BE 25
卫星状态:
在轨 (已飞行664 天)
发射日期:
2024-08-16 UTC
国别 :
美国 (US)
星等 :
--
Orbit Information
数据来源 国际轨道数据
星历时间: 2026-06-11T19:53:13+0800
9小时前
查看轨道信息
半长轴: 6828.108km
偏心率: 0.0000878
轨道倾角: 97.380°
近地点辐角 256.049°
升交点赤经 245.607°
平近点角 104.066°
近地点: 449.371km
远地点: 450.571km
周期: 93.586分钟
每日圈数: 15.386939
Detailed Information
使用方式:
暂无
2D Orbit Map
3D Orbit Map
Orbit Altitude Analysis Chart
Orbit Inclination Analysis Chart
Orbit Comprehensive Analysis Chart
View Comprehensive Chart